[[{"header":{"parameterUnit":"m.s-1","parameterCategory":2,"la1":30.2991,"la2":30.254,"lo1":-89.0895,"lo2":-89.0444,"dy":0.0017,"dx":0.0017,"nx":28,"ny":28,"refTime":"2024-07-04T03:00:00:Z","depth":"0","parameterNumber":2,"parameterNumberName":"U-component_of_CURRENTS"},"data":[0,0,0,0,0,0,0,0,0,0,0,0,0,0,0,0,0,0,0,0,0,0,0,0,0,0,0,0,0,0,0,0,0,0,0,0,0,0,0,0,0,0,0,0,0,0,0,0,0,0,0,0,0,0,0,0,0,0,0.4062,0.4063,0,0.416,0.4161,0.4161,0.4136,0.4134,0.4133,0.4131,0.4147,0.4149,0.4151,0,0,0,0,0,0,0,0,0,0,0,0,0,0.3882,0.3885,0.4061,0.4063,0.4065,0.416,0.4161,0.4162,0.4136,0.4134,0.4132,0.413,0.4146,0.4149,0.4151,0,0,0,0,0,0,0,0,0,0,0,0,0,0.3965,0.3886,0.4061,0.4066,0.4068,0.4159,0.4161,0.4162,0.4137,0.4134,0.4132,0.413,0.4146,0.4148,0.4151,0.4217,0,0,0.416,0.4161,0,0,0,0,0,0,0,0,0.396,0.3971,0.4064,0.4066,0.4068,0.4136,0.4104,0.4177,0.4137,0.4106,0.4131,0.4128,0.414,0.4143,0.4163,0.4217,0.4218,0.416,0.4162,0.4163,0.4164,0,0,0,0,0,0,0,0.3954,0.3967,0.4096,0.4066,0.4069,0.4074,0.4083,0.4118,0.4131,0.4109,0.4108,0.4126,0.414,0.416,0.4163,0.4218,0.416,0.4163,0.4164,0.4165,0.4412,0.4417,0,0,0,0,0,0,0.3952,0.3962,0.4093,0.41,0.4011,0.408,0.4089,0.4114,0.4132,0.4135,0.4128,0.4125,0.4156,0.4159,0.4163,0.4296,0.4163,0.4166,0.4167,0.4408,0.4414,0.4419,0,0,0,0,0,0,0.3948,0.3963,0.4089,0.4035,0.4052,0.4085,0.4114,0.4117,0.4143,0.4149,0.4148,0.4151,0.4155,0.4159,0.4224,0.4293,0.4167,0.417,0.4402,0.4409,0.4416,0.4526,0,0,0,0,0,0,0.3942,0.3961,0.3983,0.4035,0.4055,0.4159,0.4117,0.4121,0.4159,0.4156,0.4169,0.4167,0.4153,0.422,0.4227,0.4295,0.4172,0.4396,0.4405,0.4414,0.4516,0.4536,0.4553,0,0,0,0,0,0.3935,0.3989,0.3983,0.4,0.4083,0.4162,0.4174,0.4185,0.4163,0.4195,0.421,0.4167,0.4283,0.4226,0.4233,0.4304,0.4391,0.4403,0.4413,0.4508,0.4532,0.4553,0,0,0,0,0,0,0.3943,0.3993,0.3988,0.4057,0.4107,0.4159,0.4199,0.4202,0.4241,0.4237,0.4221,0.4224,0.4323,0.4306,0.4243,0.4409,0.4335,0.4347,0.4405,0.4427,0.4445,0.4499,0.4174,0,0,0,0,0,0.3952,0.399,0.4043,0.4101,0.4128,0.4163,0.4196,0.421,0.4251,0.4264,0.4274,0.4307,0.4378,0.439,0.4446,0.4517,0.4535,0.4574,0.4593,0.4608,0.4662,0.4746,0.4776,0.4455,0.4454,0.4454,0,0,0.3972,0.4005,0.4028,0.4103,0.4139,0.4216,0.4177,0.4247,0.4317,0.4263,0.4355,0.4382,0.4421,0.452,0.4559,0.4502,0.4709,0.4622,0.4634,0.4681,0.4761,0.4791,0.4819,0.4462,0.4461,0.4459,0,0,0.4034,0.4062,0.4109,0.4166,0.4233,0.4266,0.429,0.4351,0.438,0.4472,0.4475,0.4553,0.4612,0.4675,0.471,0.4871,0.4823,0.4869,0.4978,0.5057,0.5084,0.5107,0.5153,0.518,0.4852,0.4852,0.4853,0,0.4051,0.4123,0.4141,0.4218,0.4277,0.4294,0.4377,0.4437,0.4511,0.4559,0.4517,0.4689,0.471,0.4865,0.4927,0.4916,0.4929,0.4875,0.5079,0.5103,0.5125,0.5166,0.5194,0.4859,0.4858,0.4858,0.4857,0,0.415,0.4218,0.4265,0.4355,0.4422,0.4505,0.4582,0.465,0.4674,0.4725,0.4871,0.4914,0.5007,0.5033,0.5031,0.5211,0.5159,0.5104,0.501,0.5163,0.5197,0.5225,0.4869,0.4866,0.4864,0.4863,0,0,0.4159,0.4298,0.4316,0.4376,0.4501,0.4568,0.4704,0.4826,0.4916,0.4988,0.5112,0.5253,0.5253,0.5301,0.5302,0.5377,0.554,0.5309,0.531,0.5335,0.5693,0.5472,0.5479,0.5495,0.5501,0.5505,0.5644,0,0.4224,0.4364,0.4431,0.4585,0.4661,0.4746,0.4872,0.499,0.5066,0.519,0.5271,0.5389,0.5358,0.5396,0.5483,0.5542,0.5621,0.5507,0.5561,0.5564,0.5332,0.5508,0.5213,0.5296,0.5671,0.5675,0.5678,0,0.4287,0.4374,0.4515,0.4684,0.4729,0.4836,0.5017,0.5135,0.5316,0.5373,0.5497,0.5541,0.5714,0.5632,0.5824,0.5739,0.5757,0.5776,0.5779,0.5565,0.5396,0.5212,0.5331,0.5258,0.572,0.5716,0.5713,0,0.425,0.4434,0.4537,0.4603,0.4798,0.4893,0.5008,0.5189,0.5299,0.5491,0.5571,0.5741,0.5827,0.5913,0.5954,0.5901,0.6121,0.6032,0.5858,0.584,0.5604,0.5553,0.5644,0.6186,0.6186,0.6186,0.6185,0,0.4291,0.4384,0.4531,0.4601,0.4755,0.4891,0.5063,0.5201,0.5392,0.5524,0.5655,0.5762,0.5902,0.6012,0.6036,0.6033,0.6183,0.5943,0.5889,0.5628,0.5581,0.5511,0.5473,0.6191,0.619,0.6189,0.6188,0,0.4275,0.4352,0.4482,0.4674,0.4741,0.4857,0.509,0.5217,0.5386,0.5561,0.5626,0.5831,0.5945,0.6043,0.6181,0.6104,0.5962,0.6089,0.5756,0.5658,0.5347,0.5323,0.5178,0.5039,0.5926,0.5921,0.5918,0,0.4291,0.4356,0.4518,0.4593,0.4696,0.4867,0.4994,0.5195,0.5319,0.5569,0.5654,0.5823,0.5871,0.5987,0.5911,0.5904,0.5819,0.5619,0.547,0.5346,0.5284,0.5117,0.5,0.5211,0.5202,0.5195,0.5189,0,0.4359,0.4394,0.4498,0.4635,0.4758,0.487,0.5057,0.5128,0.5343,0.545,0.5548,0.5594,0.5663,0.5498,0.5501,0.5462,0.5331,0.5458,0.5448,0.4852,0.4565,0.4394,0.51,0.5122,0.5129,0.5134,0.5137,0.514,0.44,0.4467,0.4578,0.4685,0.4797,0.4844,0.4822,0.4976,0.5062,0.5077,0.5291,0.5188,0.5164,0.5079,0.502,0.4781,0.4832,0.4631,0.4653,0.453,0.4263,0.48,0.4667,0.467,0.4674,0.4677,0.4679,0,0.4441,0.451,0.4637,0.4683,0.4693,0.4771,0.4828,0.4703,0.4626,0.4726,0.4686,0.4578,0.4419,0.44,0.4247,0.4061,0.3886,0.3976,0.3748,0.3706,0.4302,0.4139,0.3738,0.3738,0.3738,0.3739,0.3739,0.3739,0.4464,0.455,0.4578,0.4543,0.4535,0.4366,0.4282,0.4139,0.411,0.3911,0.3793,0.3813,0.4018,0.3961,0.3774,0.3663,0.3479,0.3208,0.3334,0.384,0.3905,0.3967,0.3811,0.3349,0.3348,0.2544,0.2538,0.2534]},{"header":{"parameterUnit":"m.s-1","parameterCategory":2,"la1":30.2991,"la2":30.254,"lo1":-89.0895,"lo2":-89.0444,"dy":0.0017,"dx":0.0017,"nx":28,"ny":28,"refTime":"2024-07-04T03:00:00:Z","depth":"0","parameterNumber":3,"parameterNumberName":"V-component_of_CURRENTS"},"data":[0,0,0,0,0,0,0,0,0,0,0,0,0,0,0,0,0,0,0,0,0,0,0,0,0,0,0,0,0,0,0,0,0,0,0,0,0,0,0,0,0,0,0,0,0,0,0,0,0,0,0,0,0,0,0,0,0,0,0.0187,0.0187,0,0.0178,0.0178,0.0178,0.0148,0.0148,0.0147,0.0146,0.0111,0.0111,0.0111,0,0,0,0,0,0,0,0,0,0,0,0,0,0.0158,0.0159,0.0187,0.0187,0.0187,0.0178,0.0178,0.0178,0.0148,0.0148,0.0147,0.0146,0.0111,0.0111,0.0111,0,0,0,0,0,0,0,0,0,0,0,0,0,0.0162,0.0159,0.0187,0.0172,0.017,0.0178,0.0178,0.0178,0.0148,0.0148,0.0147,0.0146,0.0112,0.0111,0.0111,0.0127,0,0,0.0109,0.0109,0,0,0,0,0,0,0,0,0.0161,0.0163,0.0174,0.0173,0.0171,0.0163,0.0155,0.016,0.0149,0.0156,0.0146,0.0145,0.0127,0.0125,0.0126,0.0125,0.0124,0.0109,0.0109,0.0109,0.0108,0,0,0,0,0,0,0,0.0161,0.0163,0.0184,0.0174,0.0172,0.0157,0.0157,0.0155,0.0147,0.0156,0.0154,0.0153,0.0126,0.0127,0.0125,0.0123,0.0109,0.0109,0.0108,0.0108,0.0157,0.0158,0,0,0,0,0,0,0.0165,0.0163,0.0184,0.0183,0.0164,0.0159,0.0158,0.0167,0.0147,0.0144,0.0154,0.0152,0.0128,0.0125,0.0123,0.0183,0.0109,0.0108,0.0108,0.0155,0.0157,0.0159,0,0,0,0,0,0,0.0165,0.0168,0.0184,0.0172,0.0173,0.0161,0.017,0.0167,0.017,0.0146,0.0142,0.016,0.0127,0.0124,0.0134,0.018,0.0108,0.0107,0.0153,0.0156,0.0158,0.0276,0,0,0,0,0,0,0.0164,0.0168,0.0178,0.0173,0.0174,0.0201,0.0171,0.0168,0.0171,0.0168,0.015,0.0145,0.0126,0.0135,0.0134,0.0178,0.0107,0.0151,0.0154,0.0157,0.027,0.0282,0.0292,0,0,0,0,0,0.0163,0.0188,0.0179,0.0181,0.0188,0.0202,0.0202,0.0188,0.0172,0.0185,0.0172,0.0146,0.0153,0.0136,0.0134,0.0179,0.015,0.0153,0.0157,0.0265,0.028,0.0292,0,0,0,0,0,0,0.0182,0.0187,0.0177,0.0201,0.0204,0.0197,0.0211,0.0197,0.0197,0.0194,0.0165,0.0161,0.0189,0.0164,0.0146,0.02,0.0148,0.0151,0.0231,0.0244,0.0255,0.0302,0.0107,0,0,0,0,0,0.0191,0.021,0.0207,0.0228,0.0233,0.0222,0.0226,0.0217,0.0215,0.0213,0.0203,0.0194,0.0203,0.0206,0.0205,0.0233,0.0208,0.026,0.0271,0.0281,0.0317,0.0317,0.0332,0.017,0.017,0.017,0,0,0.0202,0.0209,0.0218,0.0233,0.0235,0.027,0.0223,0.0239,0.0274,0.0211,0.0255,0.0233,0.0218,0.0255,0.0265,0.0239,0.0307,0.0285,0.0294,0.0325,0.0323,0.0338,0.0352,0.0173,0.0172,0.0172,0,0,0.0247,0.0244,0.0279,0.0293,0.0305,0.0305,0.0313,0.0314,0.032,0.0351,0.0322,0.0334,0.0334,0.0346,0.0349,0.0421,0.0365,0.0408,0.0507,0.0507,0.052,0.0532,0.0493,0.0501,0.0414,0.0415,0.0415,0,0.026,0.0311,0.0291,0.0337,0.0365,0.0328,0.0384,0.039,0.0395,0.0426,0.0381,0.0423,0.0391,0.0466,0.0482,0.0452,0.0422,0.0458,0.0523,0.0535,0.0545,0.0502,0.0509,0.0421,0.042,0.0419,0.0419,0,0.0338,0.0382,0.0409,0.0459,0.048,0.0523,0.053,0.0557,0.0552,0.0563,0.0622,0.0586,0.0619,0.06,0.056,0.0631,0.0573,0.0536,0.0493,0.0569,0.0517,0.0523,0.0429,0.0427,0.0425,0.0424,0,0,0.0378,0.045,0.0465,0.0521,0.0555,0.0592,0.0653,0.0716,0.0791,0.0772,0.0872,0.0856,0.0834,0.0836,0.0788,0.0778,0.0792,0.069,0.0687,0.0659,0.0763,0.0688,0.0684,0.076,0.0762,0.0764,0.0688,0,0.0456,0.0569,0.0583,0.0704,0.0768,0.0773,0.0847,0.0892,0.0921,0.1003,0.0976,0.104,0.0925,0.095,0.0924,0.0846,0.0816,0.0815,0.0689,0.0685,0.0616,0.0693,0.0673,0.0603,0.0693,0.0693,0.0694,0,0.0545,0.0614,0.0736,0.0858,0.0889,0.0952,0.1082,0.1147,0.1228,0.1254,0.1296,0.1271,0.1284,0.1162,0.1069,0.107,0.0932,0.0841,0.0836,0.0739,0.0622,0.0546,0.0608,0.0455,0.0701,0.07,0.07,0,0.061,0.0736,0.0844,0.0883,0.0997,0.1067,0.1135,0.1228,0.1331,0.1426,0.1511,0.1492,0.1518,0.1368,0.1172,0.1124,0.1046,0.0954,0.0752,0.0742,0.0692,0.0676,0.0606,0.088,0.088,0.088,0.0881,0,0.0704,0.0797,0.0888,0.0954,0.1113,0.1156,0.1332,0.14,0.1536,0.1702,0.1652,0.1765,0.1571,0.1497,0.1266,0.1044,0.1116,0.0799,0.074,0.0727,0.0715,0.055,0.0426,0.0877,0.0878,0.0879,0.0879,0,0.0766,0.0819,0.0963,0.1096,0.1149,0.1267,0.1457,0.1602,0.1697,0.1916,0.1963,0.1991,0.1888,0.166,0.1431,0.1189,0.0844,0.0854,0.0833,0.0773,0.0413,0.0295,0.0123,0.0041,0.0621,0.0619,0.0618,0,0.081,0.0889,0.106,0.116,0.1228,0.1395,0.1533,0.1672,0.1846,0.2063,0.22,0.217,0.2175,0.1805,0.1383,0.0986,0.0793,0.0694,0.0598,0.0425,0.025,0.0166,0.0104,0.0558,0.0556,0.0554,0.0553,0,0.0909,0.0964,0.1077,0.1271,0.1431,0.1626,0.1834,0.1988,0.2192,0.2364,0.2561,0.2572,0.2224,0.1831,0.1288,0.0998,0.0563,0.0644,0.0495,0.0234,0.0112,-0.0005,0.0544,0.0538,0.054,0.0541,0.0542,0.0542,0.0983,0.1084,0.1231,0.1417,0.1608,0.1856,0.2013,0.2247,0.2515,0.2762,0.2769,0.2779,0.2235,0.1486,0.111,0.0431,0.0407,0.0204,0.0083,0.0023,-0.0069,0.0431,0.0339,0.0339,0.0339,0.0339,0.034,0,0.1092,0.1203,0.1375,0.1611,0.1826,0.191,0.2225,0.2378,0.2672,0.2854,0.2959,0.2667,0.1992,0.1345,0.0417,-0.0031,-0.0174,-0.0256,-0.0353,-0.0384,0.0099,0.0088,-0.0098,-0.0097,-0.0097,-0.0097,-0.0097,-0.0097,0.1164,0.1335,0.1419,0.176,0.1927,0.2192,0.2364,0.2591,0.2752,0.2906,0.2889,0.2834,0.2368,0.077,-0.0258,-0.0487,-0.0717,-0.0831,-0.0937,-0.0589,-0.0553,-0.0519,-0.0553,-0.087,-0.0871,-0.134,-0.1345,-0.1349]}],[{"header":{"parameterUnit":"m.s-1","parameterCategory":2,"la1":30.2991,"la2":30.254,"lo1":-89.0895,"lo2":-89.0444,"dy":0.0017,"dx":0.0017,"nx":28,"ny":28,"refTime":"2024-07-04T03:00:00:Z","depth":"2","parameterNumber":2,"parameterNumberName":"U-component_of_CURRENTS"},"data":[0,0,0,0,0,0,0,0,0,0,0,0,0,0,0,0,0,0,0,0,0,0,0,0,0,0,0,0,0,0,0,0,0,0,0,0,0,0,0,0,0,0,0,0,0,0,0,0,0,0,0,0,0,0,0,0,0,0,0.3453,0.3454,0,0.3539,0.354,0.354,0.3553,0.3553,0.3553,0.3552,0.3581,0.3582,0.3583,0,0,0,0,0,0,0,0,0,0,0,0,0,0.3377,0.3377,0.3453,0.3454,0.3456,0.3539,0.354,0.3541,0.3554,0.3553,0.3552,0.3552,0.358,0.3582,0.3583,0,0,0,0,0,0,0,0,0,0,0,0,0,0.3427,0.3377,0.3453,0.3475,0.3478,0.3539,0.354,0.3541,0.3554,0.3553,0.3552,0.3552,0.358,0.3582,0.3583,0.3607,0,0,0.3589,0.3589,0,0,0,0,0,0,0,0,0.3424,0.3429,0.347,0.3473,0.3477,0.3538,0.3524,0.3561,0.3554,0.3521,0.3552,0.3551,0.3564,0.3567,0.358,0.3609,0.361,0.3589,0.359,0.3591,0.3591,0,0,0,0,0,0,0,0.3421,0.3426,0.3483,0.3472,0.3476,0.3507,0.3513,0.3531,0.3541,0.3524,0.3526,0.3542,0.3565,0.3579,0.3581,0.361,0.3589,0.359,0.3591,0.3592,0.3792,0.3796,0,0,0,0,0,0,0.3414,0.3423,0.3481,0.3486,0.3453,0.3509,0.3515,0.3516,0.3542,0.3547,0.3542,0.3542,0.3576,0.3579,0.3582,0.3699,0.3591,0.3592,0.3593,0.3787,0.3793,0.3797,0,0,0,0,0,0,0.3412,0.3418,0.3477,0.346,0.347,0.3511,0.3512,0.3518,0.3546,0.3558,0.356,0.3565,0.3575,0.3579,0.3618,0.3696,0.3593,0.3595,0.3782,0.3789,0.3795,0.3876,0,0,0,0,0,0,0.3409,0.3416,0.3429,0.3459,0.3471,0.3521,0.3514,0.3521,0.3557,0.3558,0.3578,0.3579,0.3575,0.3615,0.3619,0.3697,0.3596,0.3777,0.3785,0.3793,0.3868,0.3884,0.3898,0,0,0,0,0,0.3406,0.3427,0.3429,0.3437,0.3482,0.3523,0.3532,0.3556,0.3559,0.3577,0.3595,0.3579,0.3671,0.3618,0.3623,0.3703,0.3773,0.3783,0.3792,0.3861,0.3881,0.3898,0,0,0,0,0,0,0.3409,0.3431,0.3434,0.3463,0.3493,0.3527,0.3561,0.3569,0.3599,0.3614,0.3604,0.3608,0.3688,0.3684,0.3626,0.3792,0.3732,0.3743,0.3783,0.3802,0.3817,0.3883,0.3597,0,0,0,0,0,0.3414,0.3429,0.3457,0.3482,0.3503,0.3533,0.3559,0.358,0.3608,0.3622,0.3635,0.3676,0.3733,0.3751,0.3795,0.3856,0.3873,0.3924,0.394,0.3952,0.4015,0.4098,0.4126,0.3829,0.3828,0.3828,0,0,0.3423,0.344,0.345,0.3484,0.3514,0.3565,0.3546,0.3603,0.3645,0.3621,0.3686,0.3726,0.3764,0.3851,0.3888,0.385,0.4037,0.3964,0.3974,0.4031,0.4111,0.414,0.4165,0.3835,0.3834,0.3833,0,0,0.3464,0.3466,0.3502,0.3531,0.3588,0.3608,0.3626,0.3674,0.3693,0.3761,0.3778,0.3871,0.3915,0.3983,0.4017,0.4148,0.4121,0.4157,0.4276,0.4354,0.4379,0.4401,0.4408,0.4431,0.4156,0.4156,0.4156,0,0.3482,0.3513,0.3523,0.3575,0.3598,0.3629,0.3676,0.3717,0.3772,0.384,0.3799,0.3974,0.4002,0.4139,0.4207,0.4187,0.4194,0.4186,0.4372,0.4395,0.4416,0.4419,0.4442,0.4161,0.4161,0.416,0.416,0,0.3544,0.3582,0.361,0.367,0.3703,0.3748,0.3795,0.3866,0.39,0.3973,0.4112,0.4139,0.4262,0.4284,0.4292,0.4474,0.4414,0.4378,0.4314,0.445,0.4444,0.4467,0.4169,0.4167,0.4165,0.4164,0,0,0.3536,0.3631,0.3641,0.3677,0.3745,0.3779,0.3883,0.3999,0.4105,0.4182,0.4304,0.4445,0.4501,0.4548,0.4547,0.4626,0.4773,0.4585,0.4586,0.4574,0.49,0.4692,0.4695,0.4753,0.4759,0.4763,0.4813,0,0.3574,0.3682,0.37,0.3787,0.3842,0.3896,0.4004,0.4136,0.4209,0.4348,0.445,0.4572,0.4575,0.4627,0.4724,0.4779,0.4849,0.4761,0.4791,0.4792,0.4576,0.4722,0.436,0.4362,0.4835,0.4839,0.4842,0,0.3608,0.3679,0.3764,0.3876,0.3904,0.3968,0.4124,0.423,0.4462,0.4523,0.4677,0.4737,0.4921,0.4848,0.5033,0.4969,0.4985,0.4988,0.4988,0.4801,0.4631,0.4318,0.4386,0.488,0.4877,0.4874,0.4872,0,0.3586,0.3702,0.3758,0.3787,0.3941,0.4007,0.4124,0.4338,0.4447,0.4648,0.4742,0.492,0.5012,0.5091,0.515,0.5109,0.5285,0.5205,0.5018,0.4998,0.4708,0.4653,0.5341,0.5341,0.5341,0.5341,0.5341,0,0.3579,0.3638,0.3766,0.3797,0.3923,0.4045,0.4205,0.4341,0.4554,0.47,0.485,0.4926,0.5091,0.5192,0.5208,0.5193,0.5338,0.5094,0.5033,0.4717,0.4665,0.5137,0.5113,0.5343,0.5342,0.5342,0.5342,0,0.354,0.3615,0.3704,0.386,0.3905,0.4025,0.4235,0.4376,0.4578,0.4734,0.4807,0.5016,0.5116,0.5201,0.5313,0.5248,0.5248,0.5191,0.4777,0.4667,0.4883,0.4863,0.4997,0.4991,0.4985,0.4981,0.4978,0,0.3527,0.356,0.3713,0.3758,0.3812,0.3994,0.413,0.4367,0.4477,0.4743,0.4801,0.4978,0.5004,0.509,0.5037,0.4991,0.5118,0.4605,0.4482,0.494,0.4867,0.4854,0.4842,0.4107,0.4097,0.4088,0.4081,0,0.3502,0.3554,0.3642,0.3728,0.3823,0.3936,0.412,0.4179,0.444,0.4531,0.4631,0.468,0.4786,0.4583,0.4558,0.4484,0.4583,0.4422,0.5067,0.4236,0.4101,0.4028,0.4046,0.4005,0.4013,0.4018,0.4023,0.4026,0.3485,0.3532,0.3625,0.3681,0.3794,0.3825,0.3843,0.396,0.4045,0.4098,0.4312,0.4249,0.4306,0.4057,0.3913,0.3816,0.4119,0.3928,0.3955,0.3991,0.3865,0.3728,0.3535,0.3539,0.3544,0.3547,0.355,0,0.3453,0.3485,0.3548,0.3631,0.3666,0.374,0.379,0.3715,0.3645,0.3749,0.3772,0.3458,0.3316,0.3366,0.3105,0.3073,0.3066,0.2928,0.2905,0.2983,0.3053,0.2879,0.2287,0.2283,0.2279,0.2275,0,0,0.3431,0.3456,0.3466,0.3457,0.3489,0.3425,0.336,0.3217,0.32,0.303,0.2981,0.3227,0.3308,0.2784,0.2695,0.2449,0.2703,0.2347,0.3371,0.3428,0.3492,0.3646,0.3469,0,0,0,0,0]},{"header":{"parameterUnit":"m.s-1","parameterCategory":2,"la1":30.2991,"la2":30.254,"lo1":-89.0895,"lo2":-89.0444,"dy":0.0017,"dx":0.0017,"nx":28,"ny":28,"refTime":"2024-07-04T03:00:00:Z","depth":"2","parameterNumber":3,"parameterNumberName":"V-component_of_CURRENTS"},"data":[0,0,0,0,0,0,0,0,0,0,0,0,0,0,0,0,0,0,0,0,0,0,0,0,0,0,0,0,0,0,0,0,0,0,0,0,0,0,0,0,0,0,0,0,0,0,0,0,0,0,0,0,0,0,0,0,0,0,0.0051,0.0051,0,0.004,0.004,0.004,0.0018,0.0017,0.0017,0.0016,-0.0018,-0.0019,-0.0019,0,0,0,0,0,0,0,0,0,0,0,0,0,0.0038,0.0039,0.0051,0.0051,0.0051,0.004,0.004,0.004,0.0018,0.0017,0.0016,0.0016,-0.0018,-0.0019,-0.0019,0,0,0,0,0,0,0,0,0,0,0,0,0,0.0038,0.0039,0.0051,0.0038,0.0037,0.004,0.004,0.004,0.0018,0.0017,0.0016,0.0016,-0.0018,-0.0019,-0.0019,-0.001,0,0,-0.0021,-0.0022,0,0,0,0,0,0,0,0,0.0038,0.0038,0.0041,0.0039,0.0038,0.0029,0.0023,0.0022,0.0018,0.0026,0.0016,0.0015,-0.0004,-0.0006,-0.0006,-0.0011,-0.0013,-0.0022,-0.0022,-0.0022,-0.0022,0,0,0,0,0,0,0,0.0038,0.0039,0.0047,0.004,0.0039,0.0028,0.0027,0.0022,0.0015,0.0025,0.0023,0.0021,-0.0005,-0.0005,-0.0007,-0.0013,-0.0022,-0.0022,-0.0023,-0.0023,-0.0,0.0001,0,0,0,0,0,0,0.004,0.0039,0.0048,0.0047,0.0036,0.0028,0.0028,0.0033,0.0015,0.0012,0.0022,0.002,-0.0003,-0.0006,-0.0008,0.0033,-0.0022,-0.0023,-0.0023,-0.0001,0.0,0.0001,0,0,0,0,0,0,0.004,0.0041,0.0048,0.0042,0.0042,0.003,0.0036,0.0033,0.0036,0.0013,0.0009,0.0027,-0.0004,-0.0007,-0.0004,0.003,-0.0023,-0.0024,-0.0002,-0.0001,0.0001,0.0096,0,0,0,0,0,0,0.004,0.0042,0.005,0.0042,0.0042,0.006,0.0036,0.0033,0.0036,0.0033,0.0017,0.0012,-0.0005,-0.0003,-0.0005,0.0028,-0.0024,-0.0004,-0.0002,0.0,0.0092,0.0101,0.0108,0,0,0,0,0,0.004,0.0059,0.0051,0.0052,0.0053,0.0061,0.0061,0.0049,0.0037,0.0047,0.0034,0.0013,0.0008,-0.0002,-0.0005,0.0029,-0.0005,-0.0002,0.0,0.0088,0.0099,0.0108,0,0,0,0,0,0,0.0057,0.0058,0.0049,0.0067,0.0066,0.0057,0.0068,0.0056,0.0054,0.0052,0.0026,0.0022,0.0037,0.0017,0.0006,0.0039,-0.0001,0.0001,0.0066,0.0076,0.0085,0.0121,-0.0025,0,0,0,0,0,0.0065,0.008,0.0074,0.0088,0.0092,0.008,0.0082,0.0075,0.0069,0.0068,0.0058,0.0047,0.0045,0.0047,0.0039,0.006,0.0027,0.0078,0.0087,0.0094,0.0121,0.0108,0.0118,0.0009,0.0009,0.0009,0,0,0.0072,0.0077,0.0083,0.0093,0.0093,0.0119,0.0081,0.0092,0.0112,0.0065,0.0093,0.0075,0.0055,0.0078,0.0084,0.0067,0.01,0.0097,0.0104,0.0128,0.0111,0.0122,0.0131,0.001,0.001,0.001,0,0,0.011,0.0104,0.0135,0.0143,0.015,0.0147,0.0153,0.0152,0.015,0.017,0.0142,0.0151,0.0145,0.0148,0.0145,0.0196,0.0141,0.0184,0.0265,0.0251,0.026,0.0268,0.0206,0.0208,0.0193,0.0194,0.0194,0,0.0119,0.016,0.0144,0.0181,0.0197,0.0167,0.0207,0.0205,0.0205,0.0229,0.0192,0.0212,0.0187,0.0231,0.0245,0.022,0.0181,0.0229,0.0264,0.0271,0.0277,0.0212,0.0213,0.0199,0.0198,0.0197,0.0197,0,0.0187,0.0217,0.0239,0.0277,0.029,0.0319,0.0314,0.0336,0.0328,0.0336,0.0369,0.033,0.0356,0.0337,0.0307,0.035,0.0293,0.0272,0.0242,0.0295,0.0221,0.022,0.0206,0.0204,0.0202,0.0201,0,0,0.0218,0.0275,0.0284,0.0325,0.0345,0.0371,0.0411,0.0457,0.0517,0.0492,0.0562,0.0539,0.0527,0.0522,0.0477,0.0457,0.0447,0.0391,0.0388,0.0336,0.0378,0.0329,0.0322,0.0428,0.0429,0.043,0.0295,0,0.028,0.0376,0.0377,0.0464,0.0518,0.0511,0.0571,0.0606,0.0617,0.0677,0.0638,0.0683,0.0592,0.0613,0.0578,0.05,0.0455,0.0483,0.033,0.0325,0.0282,0.0324,0.0347,0.023,0.0294,0.0294,0.0293,0,0.0354,0.0415,0.0511,0.0599,0.0622,0.0663,0.0763,0.0812,0.0875,0.0889,0.0909,0.0877,0.0868,0.077,0.065,0.067,0.0538,0.0445,0.0437,0.0369,0.0277,0.0194,0.0225,0.0291,0.0291,0.0291,0.0291,0,0.0419,0.0508,0.0593,0.0619,0.071,0.0759,0.0816,0.0894,0.0983,0.1035,0.1106,0.1053,0.1063,0.0907,0.0717,0.069,0.0554,0.0493,0.0307,0.0299,0.028,0.027,0.0393,0.0393,0.0393,0.0393,0.0394,0,0.0493,0.0562,0.0635,0.0686,0.0821,0.085,0.1,0.1048,0.116,0.13,0.1232,0.1301,0.1103,0.1,0.0779,0.0553,0.0601,0.0336,0.0281,0.0308,0.0302,0.0334,0.0329,0.0388,0.0389,0.039,0.0391,0,0.0548,0.0593,0.071,0.0815,0.0856,0.0962,0.1129,0.1259,0.1333,0.1504,0.1539,0.1514,0.1371,0.1125,0.0873,0.0663,0.043,0.0322,0.0342,0.0294,0.0152,0.0153,0.0107,0.0105,0.0103,0.0101,0.0099,0,0.0584,0.0648,0.08,0.0891,0.0937,0.1092,0.1229,0.1346,0.149,0.1636,0.1737,0.1655,0.1595,0.1193,0.083,0.0436,0.0387,0.0192,0.0153,0.0182,0.0132,0.0137,0.0141,0.0135,0.0134,0.0133,0.0133,0,0.0659,0.0713,0.0817,0.0999,0.1141,0.1326,0.151,0.1641,0.1805,0.1907,0.2009,0.1959,0.1612,0.1236,0.0724,0.0459,0.026,0.016,0.0221,0.0213,0.0201,0.0154,0.0159,0.0125,0.0126,0.0127,0.0127,0.0127,0.072,0.0816,0.0958,0.1132,0.131,0.1536,0.1685,0.1856,0.2054,0.2195,0.2168,0.2078,0.1704,0.1031,0.0607,0.0178,0.0196,0.0022,0.0028,0.0034,0.0071,0.0057,-0.0042,-0.0042,-0.0043,-0.0043,-0.0043,0,0.081,0.0921,0.1081,0.1313,0.1514,0.1595,0.1867,0.1985,0.2166,0.2264,0.2288,0.1898,0.1488,0.1046,0.0414,0.003,0.001,-0.0111,-0.0043,-0.0033,-0.0024,0.0012,-0.0119,-0.012,-0.0121,-0.0122,0,0,0.0871,0.1034,0.1122,0.145,0.1612,0.1865,0.2012,0.2134,0.2229,0.2252,0.2203,0.2132,0.1615,0.1141,0.0625,0.0255,0.0194,0.0171,0.0272,0.0424,0.0437,0.0091,0.0163,0,0,0,0,0]}],[{"header":{"parameterUnit":"m.s-1","parameterCategory":2,"la1":30.2991,"la2":30.254,"lo1":-89.0895,"lo2":-89.0444,"dy":0.0017,"dx":0.0017,"nx":28,"ny":28,"refTime":"2024-07-04T03:00:00:Z","depth":"4","parameterNumber":2,"parameterNumberName":"U-component_of_CURRENTS"},"data":[0,0,0,0,0,0,0,0,0,0,0,0,0,0,0,0,0,0,0,0,0,0,0,0,0,0,0,0,0,0,0,0,0,0,0,0,0,0,0,0,0,0,0,0,0,0,0,0,0,0,0,0,0,0,0,0,0,0,0.2038,0.2039,0,0.2065,0.2065,0.2065,0.2118,0.212,0.2122,0.2123,0.2226,0.2227,0.2229,0,0,0,0,0,0,0,0,0,0,0,0,0,0.2024,0.2024,0.2038,0.2039,0.2039,0.2065,0.2065,0.2065,0.2118,0.212,0.2122,0.2124,0.2226,0.2227,0.2229,0,0,0,0,0,0,0,0,0,0,0,0,0,0.2034,0.2024,0.2038,0.2073,0.2077,0.2065,0.2065,0.2065,0.2118,0.212,0.2122,0.2125,0.2225,0.2227,0.2229,0.2196,0,0,0.2235,0.2236,0,0,0,0,0,0,0,0,0.2033,0.2034,0.2067,0.207,0.2075,0.2095,0.2099,0.2114,0.2117,0.2097,0.2123,0.2126,0.2191,0.2196,0.2188,0.2201,0.2205,0.2235,0.2237,0.2237,0.2238,0,0,0,0,0,0,0,0.2033,0.2033,0.2044,0.2068,0.2072,0.2085,0.2089,0.2101,0.2128,0.2099,0.2104,0.2114,0.2193,0.2185,0.2191,0.2207,0.2235,0.2237,0.2238,0.2239,0.2378,0.238,0,0,0,0,0,0,0.2037,0.2032,0.2043,0.2045,0.2065,0.2084,0.2088,0.2082,0.2127,0.2136,0.2112,0.2117,0.2181,0.2188,0.2195,0.2311,0.2237,0.2239,0.224,0.2375,0.2378,0.2381,0,0,0,0,0,0,0.2036,0.2037,0.2042,0.2044,0.2047,0.2082,0.2076,0.2082,0.2121,0.2137,0.2148,0.2152,0.2183,0.2192,0.2253,0.231,0.224,0.2242,0.2372,0.2376,0.238,0.2446,0,0,0,0,0,0,0.2035,0.2036,0.2056,0.2044,0.2047,0.2064,0.2074,0.2081,0.2123,0.213,0.2173,0.2182,0.2185,0.225,0.2255,0.2311,0.2244,0.2369,0.2374,0.2379,0.244,0.2451,0.246,0,0,0,0,0,0.2034,0.204,0.2056,0.2059,0.2065,0.2065,0.2068,0.2097,0.2123,0.2141,0.2182,0.2183,0.2284,0.2253,0.2258,0.2317,0.2367,0.2373,0.2378,0.2436,0.2449,0.246,0,0,0,0,0,0,0.2044,0.2046,0.2063,0.2071,0.2086,0.2077,0.2101,0.2119,0.2159,0.2186,0.22,0.2211,0.229,0.2292,0.2257,0.2373,0.2332,0.2339,0.2374,0.2386,0.2396,0.2408,0.2245,0,0,0,0,0,0.2054,0.2064,0.2068,0.2081,0.209,0.2104,0.2119,0.2139,0.2163,0.2184,0.2221,0.2266,0.2306,0.2338,0.2368,0.2419,0.2434,0.2467,0.2477,0.2485,0.2501,0.2596,0.2616,0.2399,0.2399,0.2399,0,0,0.2057,0.2068,0.2072,0.2086,0.2099,0.2114,0.2118,0.215,0.2176,0.2189,0.2259,0.2301,0.2327,0.2394,0.243,0.241,0.2547,0.2492,0.2499,0.2511,0.2604,0.2625,0.2643,0.2403,0.2403,0.2402,0,0,0.206,0.2083,0.2091,0.2104,0.214,0.2151,0.2171,0.2195,0.2226,0.2286,0.2313,0.2389,0.2446,0.2479,0.25,0.2581,0.2595,0.2609,0.2673,0.2764,0.2783,0.2799,0.2806,0.2823,0.2617,0.2617,0.2617,0,0.2074,0.2074,0.2096,0.211,0.2127,0.2173,0.2185,0.2214,0.2266,0.2302,0.2329,0.2463,0.2484,0.2567,0.2606,0.2604,0.2642,0.2619,0.2778,0.2795,0.2811,0.2814,0.2832,0.2621,0.262,0.262,0.2619,0,0.207,0.2086,0.2093,0.2127,0.2155,0.2172,0.2214,0.2272,0.2335,0.2371,0.2491,0.2544,0.2633,0.2656,0.2658,0.2788,0.277,0.2776,0.2743,0.2836,0.2833,0.2851,0.2626,0.2625,0.2624,0.2623,0,0,0.2044,0.2081,0.2087,0.2098,0.2163,0.2173,0.2248,0.2308,0.238,0.247,0.2576,0.2658,0.2731,0.2761,0.2798,0.288,0.3003,0.2894,0.2897,0.2893,0.3174,0.2962,0.2959,0.3063,0.3067,0.3071,0.3111,0,0.2033,0.2052,0.2082,0.2108,0.2115,0.2187,0.225,0.2329,0.2427,0.2549,0.2642,0.2764,0.2756,0.285,0.2927,0.3011,0.3061,0.2988,0.3092,0.3093,0.2889,0.2978,0.3085,0.3124,0.3128,0.3131,0.3133,0,0.2005,0.2026,0.2053,0.2094,0.2108,0.2155,0.2284,0.2351,0.2524,0.2612,0.2765,0.2862,0.3012,0.3007,0.3167,0.3139,0.3162,0.3198,0.32,0.2997,0.2915,0.3024,0.3164,0.3162,0.3159,0.3157,0.3155,0,0.1953,0.1987,0.2014,0.2028,0.2109,0.216,0.2231,0.2388,0.2479,0.2702,0.2832,0.2988,0.3125,0.3214,0.3285,0.3268,0.3441,0.3411,0.3214,0.3196,0.3343,0.3325,0.3505,0.3505,0.3505,0.3504,0.3504,0,0.1893,0.1906,0.2,0.2008,0.2068,0.2149,0.2255,0.2366,0.2571,0.2696,0.2889,0.3024,0.3206,0.332,0.3343,0.3326,0.348,0.3235,0.3214,0.3361,0.3346,0.3352,0.3333,0.3506,0.3505,0.3505,0.3505,0,0.1805,0.187,0.1894,0.1994,0.2043,0.2095,0.2257,0.2334,0.2564,0.2761,0.2858,0.3105,0.3249,0.3353,0.3487,0.3376,0.3393,0.3331,0.3451,0.3434,0.306,0.3045,0.3118,0.3111,0.3105,0.31,0.3097,0,0.1746,0.176,0.1879,0.1913,0.1962,0.2059,0.2128,0.2324,0.2415,0.277,0.2846,0.3097,0.3221,0.3231,0.3337,0.3338,0.3293,0.324,0.317,0.3059,0.3032,0.3026,0.3019,0.3088,0.3086,0.3085,0.3083,0,0.1613,0.1689,0.172,0.1818,0.1886,0.195,0.2067,0.2131,0.2377,0.2605,0.2791,0.2903,0.3039,0.311,0.3127,0.3121,0.3257,0.318,0.319,0.3124,0.3024,0.3001,0.3001,0.3063,0.3066,0.3068,0.3069,0,0.1534,0.1525,0.1601,0.1675,0.1774,0.183,0.1894,0.2001,0.2136,0.2518,0.2555,0.2822,0.3018,0.2996,0.3021,0.3001,0.2947,0.2822,0.285,0.2873,0.2773,0.2608,0.2515,0,0,0,0,0,0.142,0.1398,0.1444,0.1518,0.1624,0.1706,0.185,0.1927,0.2166,0.2236,0.2403,0.2526,0.2635,0.2746,0.2673,0.2872,0.2927,0.2769,0.279,0.2955,0.2977,0.2881,0,0,0,0,0,0,0.1349,0.1356,0.1378,0.139,0.1447,0.1545,0.165,0.1808,0.1842,0.2107,0.2172,0.2368,0.2489,0.2675,0.2638,0.2661,0.2614,0.2907,0.2899,0.2942,0.2963,0.2981,0.2889,0,0,0,0,0]},{"header":{"parameterUnit":"m.s-1","parameterCategory":2,"la1":30.2991,"la2":30.254,"lo1":-89.0895,"lo2":-89.0444,"dy":0.0017,"dx":0.0017,"nx":28,"ny":28,"refTime":"2024-07-04T03:00:00:Z","depth":"4","parameterNumber":3,"parameterNumberName":"V-component_of_CURRENTS"},"data":[0,0,0,0,0,0,0,0,0,0,0,0,0,0,0,0,0,0,0,0,0,0,0,0,0,0,0,0,0,0,0,0,0,0,0,0,0,0,0,0,0,0,0,0,0,0,0,0,0,0,0,0,0,0,0,0,0,0,0.0033,0.0033,0,0.0033,0.0033,0.0033,0.0019,0.0018,0.0018,0.0018,-0.0009,-0.001,-0.001,0,0,0,0,0,0,0,0,0,0,0,0,0,0.0014,0.0015,0.0033,0.0033,0.0033,0.0033,0.0033,0.0033,0.0019,0.0018,0.0018,0.0017,-0.0009,-0.001,-0.001,0,0,0,0,0,0,0,0,0,0,0,0,0,0.002,0.0015,0.0033,0.0025,0.0024,0.0033,0.0033,0.0033,0.0019,0.0018,0.0018,0.0017,-0.0009,-0.001,-0.001,0.0001,0,0,-0.0011,-0.0012,0,0,0,0,0,0,0,0,0.0019,0.0021,0.0026,0.0026,0.0025,0.0024,0.0016,0.002,0.0019,0.0022,0.0018,0.0017,-0.0001,-0.0002,0.0001,-0.0001,-0.0002,-0.0011,-0.0012,-0.0012,-0.0012,0,0,0,0,0,0,0,0.0019,0.002,0.0034,0.0026,0.0025,0.0019,0.0019,0.0017,0.0015,0.0022,0.0021,0.0019,-0.0001,0.0002,0.0,-0.0002,-0.0011,-0.0012,-0.0012,-0.0012,-0.0009,-0.0009,0,0,0,0,0,0,0.0019,0.002,0.0034,0.0034,0.0019,0.002,0.002,0.0026,0.0015,0.0013,0.002,0.0019,0.0003,0.0001,-0.0001,0.0015,-0.0012,-0.0012,-0.0013,-0.0009,-0.0009,-0.0009,0,0,0,0,0,0,0.0018,0.002,0.0034,0.0026,0.0027,0.0021,0.0027,0.0026,0.0031,0.0014,0.0011,0.0025,0.0002,0.0,0.0003,0.0014,-0.0013,-0.0013,-0.001,-0.0009,-0.0009,0.0044,0,0,0,0,0,0,0.0018,0.002,0.0027,0.0026,0.0027,0.0046,0.0028,0.0027,0.003,0.0029,0.0018,0.0014,0.0002,0.0004,0.0003,0.0013,-0.0013,-0.001,-0.001,-0.0009,0.0042,0.0046,0.005,0,0,0,0,0,0.0017,0.0034,0.0028,0.0029,0.0036,0.0047,0.0048,0.0041,0.0031,0.0041,0.0031,0.0015,0.0007,0.0004,0.0003,0.0013,-0.0011,-0.001,-0.0009,0.004,0.0046,0.005,0,0,0,0,0,0,0.0028,0.0034,0.0027,0.0043,0.0046,0.0044,0.0053,0.0046,0.0048,0.0044,0.0026,0.0023,0.0025,0.0013,0.0011,0.0014,-0.0007,-0.0006,0.0031,0.0036,0.004,0.0046,-0.0014,0,0,0,0,0,0.0034,0.0048,0.0047,0.006,0.0064,0.0059,0.0062,0.0058,0.0056,0.0056,0.0049,0.0037,0.0028,0.0028,0.0018,0.0028,-0.0005,0.003,0.0034,0.0038,0.0041,0.0005,0.0006,-0.0006,-0.0006,-0.0006,0,0,0.0038,0.0045,0.005,0.0063,0.0065,0.0084,0.006,0.0071,0.0085,0.0053,0.0073,0.0053,0.0033,0.0039,0.0039,0.0031,0.0022,0.0039,0.0043,0.0044,0.0005,0.0006,0.0007,-0.0005,-0.0005,-0.0006,0,0,0.0063,0.0064,0.0086,0.0096,0.0104,0.0104,0.0108,0.0112,0.0111,0.0125,0.0099,0.0088,0.0087,0.0072,0.0063,0.0085,0.0042,0.008,0.0112,0.0076,0.0077,0.0077,0.0027,0.0023,0.0086,0.0086,0.0086,0,0.0068,0.01,0.0093,0.0122,0.0136,0.0116,0.0147,0.0145,0.0149,0.015,0.0138,0.0122,0.0102,0.0101,0.0104,0.0095,0.0062,0.0097,0.0082,0.0081,0.0081,0.0029,0.0024,0.0088,0.0088,0.0088,0.0087,0,0.0114,0.014,0.0156,0.0186,0.0199,0.0222,0.022,0.023,0.0223,0.0213,0.0211,0.0182,0.0174,0.016,0.0139,0.0127,0.0099,0.0089,0.0071,0.0085,0.003,0.0023,0.0092,0.0091,0.009,0.009,0,0,0.0132,0.018,0.0186,0.0218,0.0238,0.0259,0.0279,0.0293,0.0311,0.029,0.0306,0.0272,0.0246,0.0233,0.0201,0.0165,0.0122,0.0128,0.0125,0.0081,0.0031,0.0031,0.0023,0.0109,0.0109,0.0108,-0.0009,0,0.0173,0.0244,0.0251,0.0316,0.0356,0.035,0.0379,0.0382,0.0374,0.0382,0.0329,0.0333,0.0277,0.028,0.0231,0.0156,0.0108,0.0154,0.0021,0.0017,0.0018,0.0017,0.0106,-0.0015,-0.0016,-0.0018,-0.0018,0,0.0222,0.0269,0.0341,0.0403,0.0419,0.0451,0.0495,0.0519,0.0505,0.0495,0.0467,0.0425,0.0373,0.0329,0.0193,0.0225,0.0131,0.0062,0.0055,0.0035,0.0005,-0.0031,-0.0032,-0.0031,-0.003,-0.0029,-0.0028,0,0.0259,0.0332,0.0396,0.0419,0.048,0.0512,0.0545,0.0555,0.0592,0.0573,0.0588,0.0501,0.048,0.0352,0.0199,0.0199,0.0037,0.0022,-0.0073,-0.0075,-0.0065,-0.0064,-0.008,-0.008,-0.008,-0.0079,-0.0079,0,0.0307,0.0361,0.0425,0.0466,0.0559,0.0574,0.0655,0.0671,0.0695,0.074,0.0658,0.0661,0.0485,0.0372,0.0219,0.005,0.0049,-0.0071,-0.0101,-0.0042,-0.0036,-0.0071,-0.0068,-0.0084,-0.0083,-0.0082,-0.0081,0,0.0337,0.0376,0.0465,0.0546,0.0585,0.0654,0.0753,0.0806,0.0816,0.0873,0.0877,0.0781,0.0637,0.0444,0.0228,0.0096,-0.0075,-0.014,-0.0073,-0.0096,-0.0174,-0.0167,-0.0249,-0.025,-0.025,-0.0251,-0.0251,0,0.0361,0.0412,0.0531,0.0599,0.0643,0.0746,0.0824,0.0873,0.0922,0.0945,0.0969,0.0859,0.0768,0.0464,0.0244,-0.0051,-0.0093,-0.0198,-0.0181,-0.0168,-0.0189,-0.0181,-0.0174,-0.0253,-0.0253,-0.0253,-0.0253,0,0.0412,0.0451,0.0521,0.0663,0.0764,0.088,0.098,0.1022,0.1072,0.1085,0.1057,0.0909,0.0739,0.0483,0.025,0.0037,-0.0136,-0.0206,-0.0206,-0.0191,-0.0174,-0.0192,-0.0184,-0.0256,-0.0255,-0.0255,-0.0255,0,0.0446,0.0505,0.06,0.0726,0.0853,0.0969,0.1021,0.108,0.1136,0.1143,0.1125,0.095,0.0841,0.0527,0.0312,0.0105,0.0053,-0.0026,-0.0036,-0.0036,0.0059,0.0114,0.0095,0,0,0,0,0,0.0478,0.0549,0.066,0.0793,0.0911,0.1,0.1108,0.1139,0.1176,0.1176,0.1157,0.1005,0.0709,0.0569,0.0366,0.0277,-0.0003,0.0028,-0.0103,-0.027,-0.0267,-0.0192,0,0,0,0,0,0,0.0503,0.0601,0.066,0.0821,0.0919,0.1064,0.1142,0.1173,0.116,0.116,0.1006,0.0947,0.0651,0.0836,0.0364,0.03,0.0184,-0.0106,-0.0111,-0.0271,-0.0269,-0.0266,-0.0188,0,0,0,0,0]}]]